McConnell AFB, KS

4:46 AM CDT on March 27, 2017 (GMT -0500)
McConnell Air Force Base

Weather History for KIAB - April, 2014

Change the Weather History Date:

Tuesday, April 22, 2014

  Actual Average Record
Temperature  
Mean Temperature 62 °F -  
Max Temperature 76 °F 67 °F 91 °F (2006)
Min Temperature 50 °F 47 °F 39 °F (2013)
Degree Days  
Heating Degree Days 2    
Growing Degree Days 12 (Base 50)    
Moisture  
Dew Point 29 °F    
Average Humidity 29    
Maximum Humidity 47    
Minimum Humidity 17    
Precipitation  
Precipitation 0.00 in - - ()
Sea Level Pressure  
Sea Level Pressure 30.05 in    
Wind  
Wind Speed 10 mph (East)    
Max Wind Speed 14 mph    
Max Gust Speed -    
Visibility 10 miles    
Events      
Averages and records for this station are not official NWS values.
T = Trace of Precipitation, MM = Missing Value Source: NWS Daily Summary

Daily Weather History Graph

Daily Weather History Graph

Search for Another Location

Airport or City:

Trip Planner

Search our weather history database for the weather conditions in past years. The results will help you decide how hot, cold, wet, or windy it might be!

Date:

Astronomy

Apr. 22, 2014 Rise Set
Actual Time 6:44 AM CDT 8:11 PM CDT
Civil Twilight 6:17 AM CDT 8:38 PM CDT
Nautical Twilight 5:44 AM CDT 9:11 PM CDT
Astronomical Twilight 5:09 AM CDT 9:46 PM CDT
Moon 2:26 AM CDT (4/22) 1:21 PM CDT (4/22)
Length of Visible Light 14h 21m
Length of Day
13h 26m
Last Quarter, 46% of the Moon is Illuminated
Apr 22
Last Quarter
Apr 29
New
May 6
First Quarter
May 14
Full
May 21
Last Quarter

Hourly Weather History & Observations

Time (CDT) Temp. Dew Point Humidity Pressure Visibility Wind Dir Wind Speed Gust Speed Precip Events Conditions
12:58 AM 60.6 °F 25.9 °F 27% 30.09 in 10.0 mi NNE 12.7 mph - N/A   Clear
1:58 AM 58.5 °F 25.7 °F 29% 30.11 in 10.0 mi NNE 11.5 mph - N/A   Clear
2:58 AM 57.2 °F 25.3 °F 29% 30.11 in 10.0 mi NE 13.8 mph - N/A   Clear
3:58 AM 54.1 °F 26.1 °F 34% 30.11 in 10.0 mi NE 12.7 mph - N/A   Clear
4:58 AM 52.2 °F 27.5 °F 39% 30.11 in 10.0 mi NE 11.5 mph - N/A   Clear
5:58 AM 50.4 °F 28.4 °F 43% 30.12 in 10.0 mi NE 11.5 mph - N/A   Clear
6:58 AM 50.0 °F 29.8 °F 46% 30.13 in 10.0 mi NE 11.5 mph - N/A   Clear
7:58 AM 52.2 °F 32.2 °F 47% 30.14 in 10.0 mi ENE 8.1 mph - N/A   Clear
8:58 AM 56.1 °F 31.8 °F 40% 30.14 in 10.0 mi East 9.2 mph - N/A   Clear
9:58 AM 61.2 °F 35.2 °F 38% 30.15 in 10.0 mi East 6.9 mph - N/A   Clear
10:58 AM 64.2 °F 32.9 °F 31% 30.14 in 10.0 mi Variable 3.5 mph - N/A   Clear
11:58 AM 68.9 °F 30.0 °F 24% 30.13 in 10.0 mi East 5.8 mph - N/A   Clear
12:58 PM 71.8 °F 29.3 °F 21% 30.10 in 10.0 mi East 6.9 mph - N/A   Clear
1:58 PM 73.4 °F 27.5 °F 18% 30.08 in 10.0 mi Variable 4.6 mph - N/A   Clear
2:58 PM 73.8 °F 27.1 °F 18% 30.05 in 10.0 mi SE 10.4 mph - N/A   Clear
3:58 PM 75.0 °F 26.6 °F 17% 30.02 in 10.0 mi East 5.8 mph - N/A   Scattered Clouds
4:58 PM 75.6 °F 27.5 °F 17% 30.00 in 10.0 mi SSE 6.9 mph - N/A   Clear
5:58 PM 74.5 °F 27.7 °F 18% 29.97 in 10.0 mi East 11.5 mph - N/A   Clear
6:07 PM 73.4 °F 28.4 °F 19% 29.97 in 10.0 mi East 12.7 mph - N/A   Clear
6:58 PM 72.5 °F 26.1 °F 18% 29.95 in 10.0 mi East 11.5 mph - N/A   Clear
7:58 PM 68.0 °F 28.4 °F 23% 29.94 in 10.0 mi East 6.9 mph - N/A   Clear
8:58 PM 65.3 °F 28.8 °F 25% 29.95 in 10.0 mi ESE 10.4 mph - N/A   Clear
9:58 PM 62.2 °F 28.9 °F 28% 29.96 in 10.0 mi East 5.8 mph - N/A   Clear
10:58 PM 61.2 °F 32.5 °F 34% 29.94 in 10.0 mi ESE 12.7 mph - N/A   Clear
11:58 PM 60.3 °F 34.2 °F 38% 29.93 in 10.0 mi ESE 11.5 mph - N/A   Clear